User: anonymous   Login
Location: Beccas
(43.4309°N, 0.1528°E)
Time: 15:01:38
(UTC+00:00)
Language:

Cosmos 1656 - Orbit

View from above orbital plane
View from above orbital plane
View from above satellite
View from above satellite

Ground track
Ground track

The orbit data is extracted from the following two-line orbital elements,

1 15755U 85042A   22023.16815538 -.00000171  00000-0 -56942-4 0  9999
2 15755  71.1117  61.5008 0036970 317.2212  42.6038 14.20478932899397
Epoch (UTC): 23 January 2022 04:02:08
Eccentricity: 0.0036970
inclination: 71.1117°
perigee height: 797 km
apogee height: 850 km
right ascension of ascending node: 61.5008°
argument of perigee: 317.2212°
revolutions per day: 14.20478932
mean anomaly at epoch: 42.6038°
orbit number at epoch: 89939

The dashed part of the orbit path shows where the satellite is in the earth's shadow,  

DLR